Date String (YYYY-MM-DD hh:mm:ss) UTC,Instrument flags,Ambient pressure (hPa),Sample flow (lpm),Bypass flow (lpm),Sample temperature (°C),Ambient temperature (°C),ASC tube jacket temperature (°C),LED temperature (°C),Box temperature (°C),Sample RH (%),Span deviation,Mass concentration (μg/m³),Mass concentration (μg/m³),Mass concentration (μg/m³)
DateTimeUTC,F1_M11,P_M11,Q1_M11,Q2_M11,T1_M11,T2_M11,T3_M11,T4_M11,T5_M11,U1_M11,ZSPAN_M11,X2_M11,X0_M11,X1_M11
2022-07-22 04:00:00,,0826.7,5.01,0.00,29.4,26.9,00.0,38.1,31.2,18.6,0000.0,0005.24,0014.17,0004.11
2022-07-22 04:01:00,,0826.6,4.99,0.00,29.3,27.0,00.0,38.1,31.1,18.7,0000.0,0005.22,0014.86,0004.10
2022-07-22 04:02:00,,0826.6,5.00,0.00,29.3,27.1,00.0,38.1,31.1,18.8,0000.0,0005.24,0015.02,0004.11
2022-07-22 04:03:00,,0826.7,5.00,0.00,29.3,27.3,00.0,38.1,31.1,18.7,0000.0,0005.28,0015.33,0004.11
2022-07-22 04:04:00,,0826.6,5.00,0.00,29.3,27.5,00.0,38.1,31.2,18.8,0000.0,0005.31,0015.53,0004.12
2022-07-22 04:05:00,,0826.6,5.00,0.00,29.3,27.7,00.0,38.1,31.2,18.9,0000.0,0005.30,0016.00,0004.12
2022-07-22 04:06:00,,0826.7,5.00,0.00,29.3,27.8,00.0,38.1,31.3,18.8,0000.0,0005.29,0016.18,0004.11
2022-07-22 04:07:00,,0826.7,4.99,0.00,29.4,28.0,00.0,38.1,31.3,18.7,0000.0,0005.30,0016.34,0004.11
2022-07-22 04:08:00,,0826.7,5.01,0.00,29.4,28.1,00.0,38.1,31.3,18.7,0000.0,0005.31,0015.83,0004.11
2022-07-22 04:09:00,,0826.7,4.99,0.00,29.4,28.2,00.0,38.1,31.4,18.6,0000.0,0005.35,0014.68,0004.12
2022-07-22 04:10:00,,0826.7,5.01,0.00,29.5,28.3,00.0,38.1,31.4,18.7,0000.0,0005.38,0014.56,0004.12
2022-07-22 04:11:00,,0826.7,5.00,0.00,29.5,28.4,00.0,38.2,31.5,18.7,0000.0,0005.37,0014.09,0004.12
2022-07-22 04:12:00,,0826.7,5.01,0.00,29.5,28.5,00.0,38.2,31.5,18.5,0000.0,0005.37,0013.43,0004.12
2022-07-22 04:13:00,,0826.6,4.99,0.00,29.6,28.3,00.0,38.2,31.6,18.5,0000.0,0005.38,0013.41,0004.11
2022-07-22 04:14:00,,0826.6,5.00,0.00,29.6,27.6,00.0,38.1,31.5,18.5,0000.0,0005.38,0013.31,0004.10
2022-07-22 04:15:00,,0826.6,5.00,0.00,29.5,27.5,00.0,38.1,31.4,18.6,0000.0,0005.41,0013.36,0004.09
2022-07-22 04:16:00,,0826.6,5.00,0.00,29.5,27.5,00.0,38.1,31.3,18.5,0000.0,0005.43,0013.31,0004.08
2022-07-22 04:17:00,,0826.6,5.00,0.00,29.4,27.6,00.0,38.1,31.3,18.5,0000.0,0005.38,0013.13,0004.08
2022-07-22 04:18:00,,0826.6,5.00,0.00,29.4,27.7,00.0,38.2,31.3,18.6,0000.0,0005.39,0012.87,0004.07
2022-07-22 04:19:00,,0826.6,5.00,0.00,29.4,27.8,00.0,38.2,31.3,18.6,0000.0,0005.37,0012.79,0004.06
2022-07-22 04:20:00,,0826.6,5.00,0.00,29.5,28.0,00.0,38.2,31.4,18.6,0000.0,0005.37,0012.08,0004.05
2022-07-22 04:21:00,,0826.6,5.00,0.00,29.5,28.1,00.0,38.2,31.4,18.6,0000.0,0005.32,0011.78,0004.05
2022-07-22 04:22:00,,0826.6,5.00,0.00,29.5,28.3,00.0,38.2,31.5,18.6,0000.0,0005.29,0011.78,0004.03
2022-07-22 04:23:00,,0826.6,5.01,0.00,29.5,28.4,00.0,38.2,31.5,18.5,0000.0,0005.32,0012.17,0004.03
2022-07-22 04:24:00,,0826.5,5.00,0.00,29.6,28.5,00.0,38.3,31.6,18.6,0000.0,0005.31,0011.87,0004.03
2022-07-22 04:25:00,,0826.5,5.01,0.00,29.6,28.4,00.0,38.3,31.6,18.5,0000.0,0005.30,0011.80,0004.02
2022-07-22 04:26:00,,0826.5,5.00,0.00,29.6,27.8,00.0,38.2,31.5,18.4,0000.0,0005.31,0011.67,0004.02
2022-07-22 04:27:00,,0826.5,5.00,0.00,29.6,27.5,00.0,38.2,31.4,18.5,0000.0,0005.29,0011.28,0004.02
2022-07-22 04:28:00,,0826.5,5.00,0.00,29.5,27.5,00.0,38.2,31.4,18.5,0000.0,0005.31,0011.13,0004.02
2022-07-22 04:29:00,,0826.5,5.00,0.00,29.5,27.6,00.0,38.2,31.3,18.6,0000.0,0005.31,0011.39,0004.03
2022-07-22 04:30:00,,0826.5,4.99,0.00,29.5,27.7,00.0,38.2,31.3,18.5,0000.0,0005.29,0011.60,0004.04
2022-07-22 04:31:00,,0826.5,5.01,0.00,29.5,27.8,00.0,38.2,31.4,18.5,0000.0,0005.28,0011.79,0004.03
2022-07-22 04:32:00,,0826.5,5.01,0.00,29.5,28.0,00.0,38.2,31.4,18.4,0000.0,0005.29,0012.36,0004.04
2022-07-22 04:33:00,,0826.5,4.99,0.00,29.5,28.1,00.0,38.2,31.5,18.4,0000.0,0005.34,0012.78,0004.04
2022-07-22 04:34:00,,0826.5,5.01,0.00,29.5,28.2,00.0,38.3,31.5,18.3,0000.0,0005.30,0012.73,0004.03
2022-07-22 04:35:00,,0826.5,5.00,0.00,29.6,28.3,00.0,38.3,31.5,18.4,0000.0,0005.28,0012.86,0004.02
2022-07-22 04:36:00,,0826.5,4.99,0.00,29.6,28.4,00.0,38.3,31.6,18.3,0000.0,0005.27,0013.22,0004.02
2022-07-22 04:37:00,,0826.5,5.01,0.00,29.6,28.5,00.0,38.3,31.6,18.3,0000.0,0005.20,0013.28,0004.01
2022-07-22 04:38:00,,0826.5,4.98,0.00,29.7,28.4,00.0,38.3,31.7,18.2,0000.0,0005.18,0013.65,0004.01
2022-07-22 04:39:00,,0826.5,5.01,0.00,29.7,27.7,00.0,38.2,31.5,18.2,0000.0,0005.20,0013.75,0004.01
2022-07-22 04:40:00,,0826.5,5.00,0.00,29.6,27.5,00.0,38.2,31.5,18.1,0000.0,0005.18,0013.50,0004.00
2022-07-22 04:41:00,,0826.5,5.00,0.00,29.6,27.5,00.0,38.2,31.4,18.2,0000.0,0005.15,0013.01,0003.99
2022-07-22 04:42:00,,0826.5,5.00,0.00,29.5,27.6,00.0,38.2,31.4,18.1,0000.0,0005.11,0012.73,0003.97
2022-07-22 04:43:00,,0826.5,4.99,0.00,29.5,27.7,00.0,38.3,31.4,18.1,0000.0,0005.14,0012.16,0003.97
2022-07-22 04:44:00,,0826.5,5.01,0.00,29.5,27.9,00.0,38.3,31.4,18.2,0000.0,0005.09,0011.80,0003.96
2022-07-22 04:45:00,,0826.5,5.00,0.00,29.5,28.0,00.0,38.3,31.4,18.2,0000.0,0005.15,0011.74,0003.98
2022-07-22 04:46:00,,0826.4,5.00,0.00,29.6,28.1,00.0,38.3,31.5,18.2,0000.0,0005.19,0012.35,0004.00
2022-07-22 04:47:00,,0826.5,5.01,0.00,29.6,28.3,00.0,38.3,31.5,18.1,0000.0,0005.23,0012.51,0004.02
2022-07-22 04:48:00,,0826.5,4.99,0.00,29.6,28.4,00.0,38.3,31.6,18.1,0000.0,0005.24,0012.57,0004.03
2022-07-22 04:49:00,,0826.5,5.00,0.00,29.6,28.5,00.0,38.3,31.6,18.0,0000.0,0005.26,0012.07,0004.05
2022-07-22 04:50:00,,0826.5,5.00,0.00,29.7,28.6,00.0,38.4,31.6,18.0,0000.0,0005.30,0012.19,0004.06
2022-07-22 04:51:00,,0826.5,5.00,0.00,29.7,28.3,00.0,38.3,31.6,17.9,0000.0,0005.37,0013.75,0004.08
2022-07-22 04:52:00,,0826.4,5.00,0.00,29.7,27.6,00.0,38.3,31.5,17.9,0000.0,0005.43,0014.36,0004.09
2022-07-22 04:53:00,,0826.4,5.00,0.00,29.6,27.5,00.0,38.3,31.5,17.9,0000.0,0005.49,0014.68,0004.11
2022-07-22 04:54:00,,0826.4,5.00,0.00,29.6,27.5,00.0,38.3,31.4,17.8,0000.0,0005.49,0014.92,0004.12
2022-07-22 04:55:00,,0826.4,4.99,0.00,29.5,27.6,00.0,38.3,31.4,17.8,0000.0,0005.51,0015.50,0004.13
2022-07-22 04:56:00,,0826.4,5.00,0.00,29.5,27.8,00.0,38.3,31.4,17.7,0000.0,0005.50,0015.80,0004.12
2022-07-22 04:57:00,,0826.3,5.00,0.00,29.5,27.9,00.0,38.3,31.4,17.7,0000.0,0005.49,0015.46,0004.11
2022-07-22 04:58:00,,0826.3,5.00,0.00,29.6,28.0,00.0,38.3,31.4,17.5,0000.0,0005.47,0015.81,0004.09
2022-07-22 04:59:00,,0826.3,5.00,0.00,29.6,28.2,00.0,38.3,31.5,17.5,0000.0,0005.44,0015.53,0004.08
